﻿_id,日時,平均風速(m/s),平均風向,最大瞬間風速(m/s),最大風速時風向,気温(℃),湿度(%),10分間移動積算雨量(mm),1時間移動積算雨量(mm),日雨量(mm),累計雨量(mm),日射(日積算)(MJ/m2),日照(日積算)(min),現地気圧(hPa),海面気圧(hPa)
1,2020-08-17T00:00:00,1.2,北,2.5,北北東,27.7,85.1,0,0,0,0,23.49,649,999.6,1012.8
2,2020-08-17T00:01:00,1.3,北,2.7,北北東,27.6,84.5,0,0,0,0,0,0,999.6,1012.8
3,2020-08-17T00:02:00,1.4,北,2.7,北北東,27.5,84.7,0,0,0,0,0,0,999.6,1012.8
4,2020-08-17T00:03:00,1.4,北,2.7,北北東,27.5,85.1,0,0,0,0,0,0,999.6,1012.8
5,2020-08-17T00:04:00,1.5,北北東,2.7,北北東,27.7,85.3,0,0,0,0,0,0,999.6,1012.8
6,2020-08-17T00:05:00,1.5,北北東,2.7,北北東,27.6,84.6,0,0,0,0,0,0,999.6,1012.8
7,2020-08-17T00:06:00,1.6,北北東,2.7,北北東,27.5,84.1,0,0,0,0,0,0,999.6,1012.8
8,2020-08-17T00:07:00,1.5,北北東,2.7,北北東,27.4,84.1,0,0,0,0,0,0,999.6,1012.8
9,2020-08-17T00:08:00,1.5,北北東,2.7,北北東,27.5,84.7,0,0,0,0,0,0,999.6,1012.8
10,2020-08-17T00:09:00,1.4,北北東,2.7,北北東,27.5,84.7,0,0,0,0,0,0,999.6,1012.8
11,2020-08-17T00:10:00,1.3,北北東,2.7,北北東,27.7,84.6,0,0,0,0,0,0,999.6,1012.8
12,2020-08-17T00:11:00,1.2,北北東,2.4,北東,27.6,84.4,0,0,0,0,0,0,999.6,1012.8
13,2020-08-17T00:12:00,1.2,北北東,2.4,北東,27.6,84.5,0,0,0,0,0,0,999.6,1012.8
14,2020-08-17T00:13:00,1.1,北北東,2.1,北北東,27.5,84.7,0,0,0,0,0,0,999.6,1012.8
15,2020-08-17T00:14:00,1.1,北北東,1.9,北東,27.4,84.7,0,0,0,0,0,0,999.6,1012.8
16,2020-08-17T00:15:00,1.1,北北東,1.9,北東,27.3,85.2,0,0,0,0,0,0,999.6,1012.8
17,2020-08-17T00:16:00,1.1,北北東,1.9,北東,27.5,85.8,0,0,0,0,0,0,999.6,1012.8
18,2020-08-17T00:17:00,1.1,北北東,1.9,北東,27.4,85.5,0,0,0,0,0,0,999.6,1012.8
19,2020-08-17T00:18:00,1.2,北北東,2,北東,27.5,85.9,0,0,0,0,0,0,999.6,1012.8
20,2020-08-17T00:19:00,1.2,北北東,2.3,北北東,27.6,85.3,0,0,0,0,0,0,999.6,1012.8
21,2020-08-17T00:20:00,1.2,北北東,2.3,北北東,27.6,84.7,0,0,0,0,0,0,999.6,1012.8
22,2020-08-17T00:21:00,1.2,北北東,2.3,北北東,27.8,84.5,0,0,0,0,0,0,999.7,1012.9
23,2020-08-17T00:22:00,1.1,北北東,2.3,北北東,27.7,83.8,0,0,0,0,0,0,999.6,1012.8
24,2020-08-17T00:23:00,1.1,北北東,2.3,北北東,27.6,83.6,0,0,0,0,0,0,999.7,1012.9
25,2020-08-17T00:24:00,1,北北東,2.3,北北東,27.6,83.6,0,0,0,0,0,0,999.7,1012.9
26,2020-08-17T00:25:00,1,北北東,2.4,北北東,27.6,83.6,0,0,0,0,0,0,999.7,1012.9
27,2020-08-17T00:26:00,1.1,北北東,2.4,北北東,27.8,83.8,0,0,0,0,0,0,999.7,1012.9
28,2020-08-17T00:27:00,1.1,北北東,2.4,北北東,27.8,83.6,0,0,0,0,0,0,999.7,1012.9
29,2020-08-17T00:28:00,1.1,北,2.5,北北東,27.6,83.6,0,0,0,0,0,0,999.7,1012.9
30,2020-08-17T00:29:00,1.2,北,2.5,北北東,27.6,83.9,0,0,0,0,0,0,999.7,1012.9
31,2020-08-17T00:30:00,1.2,北,2.5,北北東,27.6,84.1,0,0,0,0,0,0,999.7,1012.9
32,2020-08-17T00:31:00,1.3,北,2.8,北北東,27.6,84,0,0,0,0,0,0,999.7,1012.9
33,2020-08-17T00:32:00,1.4,北,2.8,北北東,27.6,84.1,0,0,0,0,0,0,999.8,1013
34,2020-08-17T00:33:00,1.5,北北東,3,北北東,27.5,83.7,0,0,0,0,0,0,999.8,1013
35,2020-08-17T00:34:00,1.7,北北東,3,北北東,27.6,83.9,0,0,0,0,0,0,999.8,1013
36,2020-08-17T00:35:00,1.8,北北東,3,北北東,27.7,83.7,0,0,0,0,0,0,999.8,1013
37,2020-08-17T00:36:00,1.8,北北東,3.1,北北東,27.5,83.3,0,0,0,0,0,0,999.8,1013
38,2020-08-17T00:37:00,1.9,北北東,3.1,北北東,27.6,83.5,0,0,0,0,0,0,999.8,1013
39,2020-08-17T00:38:00,2,北北東,3.1,北北東,27.6,83.6,0,0,0,0,0,0,999.7,1012.9
40,2020-08-17T00:39:00,2,北北東,3.1,北北東,27.5,83.4,0,0,0,0,0,0,999.7,1012.9
41,2020-08-17T00:40:00,2.1,北北東,3.1,北北東,27.5,83.7,0,0,0,0,0,0,999.7,1012.9
42,2020-08-17T00:41:00,2.1,北北東,3.1,北北東,27.5,84,0,0,0,0,0,0,999.7,1012.9
43,2020-08-17T00:42:00,2,北北東,3.1,北北東,27.5,84.4,0,0,0,0,0,0,999.7,1012.9
44,2020-08-17T00:43:00,1.9,北北東,3.1,北北東,27.3,84.4,0,0,0,0,0,0,999.6,1012.8
45,2020-08-17T00:44:00,1.8,北北東,3.1,北北東,27.2,84.8,0,0,0,0,0,0,999.6,1012.9
46,2020-08-17T00:45:00,1.8,北北東,3.1,北北東,27,85,0,0,0,0,0,0,999.6,1012.9
47,2020-08-17T00:46:00,1.7,北北東,3.1,北北東,27.2,85.8,0,0,0,0,0,0,999.6,1012.9
48,2020-08-17T00:47:00,1.6,北北東,2.8,北北東,27.5,85.8,0,0,0,0,0,0,999.6,1012.8
49,2020-08-17T00:48:00,1.4,北北東,2.6,北北東,27.6,84.9,0,0,0,0,0,0,999.6,1012.8
50,2020-08-17T00:49:00,1.3,北北東,2.5,北北東,27.4,83.9,0,0,0,0,0,0,999.5,1012.7
51,2020-08-17T00:50:00,1.2,北北東,2.4,北北東,27.3,84.2,0,0,0,0,0,0,999.5,1012.7
52,2020-08-17T00:51:00,1.1,北北東,2.2,北北東,27.3,84.6,0,0,0,0,0,0,999.5,1012.7
53,2020-08-17T00:52:00,1,北,2.2,北北東,27.2,84.6,0,0,0,0,0,0,999.5,1012.7
54,2020-08-17T00:53:00,1,北,2.2,北北東,27.3,85.3,0,0,0,0,0,0,999.5,1012.7
55,2020-08-17T00:54:00,1,北,2.3,北北東,27.4,85.7,0,0,0,0,0,0,999.5,1012.7
56,2020-08-17T00:55:00,1,北,2.3,北北東,27.5,85.6,0,0,0,0,0,0,999.4,1012.6
57,2020-08-17T00:56:00,1,北,2.3,北北東,27.4,85.3,0,0,0,0,0,0,999.4,1012.6
58,2020-08-17T00:57:00,1,北,2.3,北北東,27.3,85,0,0,0,0,0,0,999.4,1012.6
59,2020-08-17T00:58:00,1.1,北,2.3,北北東,27.1,85.1,0,0,0,0,0,0,999.4,1012.7
60,2020-08-17T00:59:00,1.1,北,2.3,北北東,27.1,85.5,0,0,0,0,0,0,999.4,1012.7
61,2020-08-17T01:00:00,1.2,北,2.3,北北東,27.3,86,0,0,0,0,0,0,999.4,1012.6
62,2020-08-17T01:01:00,1.3,北北東,2.3,北北東,27.3,85.3,0,0,0,0,0,0,999.3,1012.5
63,2020-08-17T01:02:00,1.3,北,2.3,北北東,27.3,85,0,0,0,0,0,0,999.3,1012.5
64,2020-08-17T01:03:00,1.2,北,2.3,北北東,27.3,85.1,0,0,0,0,0,0,999.4,1012.6
65,2020-08-17T01:04:00,1.1,北,2.3,北北東,27.5,85.1,0,0,0,0,0,0,999.4,1012.6
66,2020-08-17T01:05:00,1.1,北,2.3,北北東,27.3,84.4,0,0,0,0,0,0,999.4,1012.6
67,2020-08-17T01:06:00,1.1,北,2.3,北北東,27.3,84.8,0,0,0,0,0,0,999.4,1012.6
68,2020-08-17T01:07:00,1.1,北北西,2.1,北北東,27.2,84.9,0,0,0,0,0,0,999.4,1012.6
69,2020-08-17T01:08:00,1,北北西,1.9,北北東,27.1,85.2,0,0,0,0,0,0,999.4,1012.7
70,2020-08-17T01:09:00,0.9,北北西,1.8,西北西,27.1,85.7,0,0,0,0,0,0,999.4,1012.7
71,2020-08-17T01:10:00,0.9,北北西,1.8,西北西,27.2,86.4,0,0,0,0,0,0,999.4,1012.6
72,2020-08-17T01:11:00,0.8,北西,1.8,西北西,27.2,86.3,0,0,0,0,0,0,999.4,1012.6
73,2020-08-17T01:12:00,0.9,北西,1.8,西北西,27.2,86.1,0,0,0,0,0,0,999.4,1012.6
74,2020-08-17T01:13:00,0.9,北西,1.8,西北西,27.3,86,0,0,0,0,0,0,999.4,1012.6
75,2020-08-17T01:14:00,0.9,北西,1.8,西北西,27.3,85.9,0,0,0,0,0,0,999.4,1012.6
76,2020-08-17T01:15:00,0.9,北西,1.8,西北西,27.2,85.5,0,0,0,0,0,0,999.4,1012.6
77,2020-08-17T01:16:00,0.8,北西,1.7,北西,27.2,85.6,0,0,0,0,0,0,999.4,1012.6
78,2020-08-17T01:17:00,0.8,北北西,1.7,北西,27.1,85.7,0,0,0,0,0,0,999.4,1012.7
79,2020-08-17T01:18:00,0.8,北北西,1.6,北西,26.9,85.9,0,0,0,0,0,0,999.4,1012.7
80,2020-08-17T01:19:00,0.8,北北西,1.6,北西,26.9,86.5,0,0,0,0,0,0,999.4,1012.7
81,2020-08-17T01:20:00,0.7,北北西,1.5,西北西,27,87,0,0,0,0,0,0,999.4,1012.7
82,2020-08-17T01:21:00,0.7,北,1.6,北東,27.1,87,0,0,0,0,0,0,999.4,1012.7
83,2020-08-17T01:22:00,0.8,北,1.8,北東,27.2,86.6,0,0,0,0,0,0,999.4,1012.6
84,2020-08-17T01:23:00,0.8,北北東,1.8,北東,27.2,85.9,0,0,0,0,0,0,999.4,1012.6
85,2020-08-17T01:24:00,0.9,北北東,1.8,北東,27.4,85.6,0,0,0,0,0,0,999.4,1012.6
86,2020-08-17T01:25:00,1,北北東,1.8,北東,27.3,85,0,0,0,0,0,0,999.4,1012.6
87,2020-08-17T01:26:00,1,北東,1.8,北東,27.5,85.1,0,0,0,0,0,0,999.4,1012.6
88,2020-08-17T01:27:00,1.1,北北東,1.8,北東,27.4,84.2,0,0,0,0,0,0,999.4,1012.6
89,2020-08-17T01:28:00,1.1,北東,1.8,北東,27.3,84,0,0,0,0,0,0,999.4,1012.6
90,2020-08-17T01:29:00,1.1,北北東,1.8,北東,27.3,84.1,0,0,0,0,0,0,999.4,1012.6
91,2020-08-17T01:30:00,1.2,北北東,1.8,北東,27.3,84.4,0,0,0,0,0,0,999.4,1012.6
92,2020-08-17T01:31:00,1.2,北北東,1.8,北東,27.2,84.8,0,0,0,0,0,0,999.4,1012.6
93,2020-08-17T01:32:00,1.2,北北東,1.8,北東,27.2,85.1,0,0,0,0,0,0,999.4,1012.6
94,2020-08-17T01:33:00,1.1,北北東,1.8,北東,27.1,85.1,0,0,0,0,0,0,999.4,1012.7
95,2020-08-17T01:34:00,1,北北東,1.8,北北東,27.1,85.3,0,0,0,0,0,0,999.4,1012.7
96,2020-08-17T01:35:00,1,北,1.8,北北東,26.8,85,0,0,0,0,0,0,999.4,1012.7
97,2020-08-17T01:36:00,0.9,北,1.8,北北東,27,85.9,0,0,0,0,0,0,999.4,1012.7
98,2020-08-17T01:37:00,0.9,北,1.8,北北東,27.1,86.1,0,0,0,0,0,0,999.4,1012.7
99,2020-08-17T01:38:00,0.9,北北西,1.8,北北東,26.8,85.5,0,0,0,0,0,0,999.4,1012.7
100,2020-08-17T01:39:00,0.8,北北西,1.8,北北東,26.8,86.1,0,0,0,0,0,0,999.4,1012.7
101,2020-08-17T01:40:00,0.8,北北西,1.8,北北東,27,86.6,0,0,0,0,0,0,999.4,1012.7
102,2020-08-17T01:41:00,0.7,北北西,1.9,北北東,27,86.3,0,0,0,0,0,0,999.4,1012.7
103,2020-08-17T01:42:00,0.7,北北西,1.9,北北東,26.9,85.9,0,0,0,0,0,0,999.4,1012.7
104,2020-08-17T01:43:00,0.7,北北西,1.9,北北東,27,86.1,0,0,0,0,0,0,999.4,1012.7
105,2020-08-17T01:44:00,0.7,北北西,1.9,北北東,27,85.8,0,0,0,0,0,0,999.4,1012.7
106,2020-08-17T01:45:00,0.7,北北西,1.9,北北東,26.8,85.7,0,0,0,0,0,0,999.4,1012.7
107,2020-08-17T01:46:00,0.7,北北西,1.9,北北東,26.7,85.9,0,0,0,0,0,0,999.4,1012.7
108,2020-08-17T01:47:00,0.7,北北西,1.9,北北東,26.7,86.8,0,0,0,0,0,0,999.4,1012.7
109,2020-08-17T01:48:00,0.8,北北西,1.9,北北東,26.7,87.1,0,0,0,0,0,0,999.4,1012.7
110,2020-08-17T01:49:00,0.9,北北西,2,北西,26.7,87.2,0,0,0,0,0,0,999.4,1012.7
111,2020-08-17T01:50:00,0.9,北北西,2,北西,26.7,86.9,0,0,0,0,0,0,999.4,1012.7
112,2020-08-17T01:51:00,0.9,北北西,2,北西,26.7,87,0,0,0,0,0,0,999.4,1012.7
113,2020-08-17T01:52:00,0.9,北北西,2,北西,26.7,87,0,0,0,0,0,0,999.4,1012.7
114,2020-08-17T01:53:00,0.9,北北西,2,北西,26.8,87,0,0,0,0,0,0,999.4,1012.7
115,2020-08-17T01:54:00,1,北北西,2.5,北北東,26.7,86.6,0,0,0,0,0,0,999.4,1012.7
116,2020-08-17T01:55:00,0.9,北北西,2.5,北北東,27,87,0,0,0,0,0,0,999.3,1012.6
117,2020-08-17T01:56:00,1,北北西,2.7,北北東,27,86.4,0,0,0,0,0,0,999.4,1012.7
118,2020-08-17T01:57:00,1.1,北北西,2.7,北北東,26.9,85.8,0,0,0,0,0,0,999.3,1012.6
119,2020-08-17T01:58:00,1.1,北北西,2.7,北北東,26.9,86.1,0,0,0,0,0,0,999.3,1012.6
120,2020-08-17T01:59:00,1.2,北北西,2.7,北北東,26.6,85.7,0,0,0,0,0,0,999.3,1012.6
121,2020-08-17T02:00:00,1.2,北,2.7,北北東,26.7,86.6,0,0,0,0,0,0,999.3,1012.6
122,2020-08-17T02:01:00,1.3,北,2.7,北北東,26.7,86.8,0,0,0,0,0,0,999.3,1012.6
123,2020-08-17T02:02:00,1.4,北,2.7,北北東,26.7,86.7,0,0,0,0,0,0,999.3,1012.6
124,2020-08-17T02:03:00,1.4,北,2.7,北北東,26.7,86.8,0,0,0,0,0,0,999.3,1012.6
125,2020-08-17T02:04:00,1.3,北,2.7,北北東,26.5,86.7,0,0,0,0,0,0,999.3,1012.6
126,2020-08-17T02:05:00,1.4,北,2.7,北北東,26.8,87.2,0,0,0,0,0,0,999.3,1012.6
127,2020-08-17T02:06:00,1.4,北,2.6,北北東,26.8,87,0,0,0,0,0,0,999.3,1012.6
128,2020-08-17T02:07:00,1.3,北,2.6,北北東,26.8,86.4,0,0,0,0,0,0,999.3,1012.6
129,2020-08-17T02:08:00,1.3,北,2.6,北北東,26.7,86,0,0,0,0,0,0,999.3,1012.6
130,2020-08-17T02:09:00,1.2,北,2.6,北北東,26.7,86.3,0,0,0,0,0,0,999.2,1012.5
131,2020-08-17T02:10:00,1.1,北,2.6,北北東,26.6,86.4,0,0,0,0,0,0,999.2,1012.5
132,2020-08-17T02:11:00,1,北,2.6,北北東,26.5,86.7,0,0,0,0,0,0,999.2,1012.5
133,2020-08-17T02:12:00,1,北,2.4,北,26.5,87.4,0,0,0,0,0,0,999.2,1012.5
134,2020-08-17T02:13:00,1,北北西,2.4,北,26.5,87.5,0,0,0,0,0,0,999.2,1012.5
135,2020-08-17T02:14:00,1,北,2.4,北,26.5,87.6,0,0,0,0,0,0,999.2,1012.5
136,2020-08-17T02:15:00,0.9,北北西,2.3,北北東,26.4,87.4,0,0,0,0,0,0,999.2,1012.5
137,2020-08-17T02:16:00,1,北,2.3,北北東,26.5,87.8,0,0,0,0,0,0,999.2,1012.5
138,2020-08-17T02:17:00,0.9,北,2.3,北北東,26.7,87.9,0,0,0,0,0,0,999.2,1012.5
139,2020-08-17T02:18:00,0.9,北,2.3,北北東,26.8,87.4,0,0,0,0,0,0,999.2,1012.5
140,2020-08-17T02:19:00,0.9,北,2.3,北北東,26.6,86.4,0,0,0,0,0,0,999.2,1012.5
141,2020-08-17T02:20:00,0.9,北,2.3,北北東,26.6,86.6,0,0,0,0,0,0,999.2,1012.5
142,2020-08-17T02:21:00,0.9,北,2.3,北北東,26.5,86.7,0,0,0,0,0,0,999.2,1012.5
143,2020-08-17T02:22:00,0.9,北,2.3,北北東,26.5,87.1,0,0,0,0,0,0,999.2,1012.5
144,2020-08-17T02:23:00,0.9,北,2.3,北北東,26.4,87.2,0,0,0,0,0,0,999.2,1012.5
145,2020-08-17T02:24:00,0.8,北,1.9,北,26.6,87.9,0,0,0,0,0,0,999.2,1012.5
146,2020-08-17T02:25:00,0.8,北,1.9,北北東,26.8,87.9,0,0,0,0,0,0,999.2,1012.5
147,2020-08-17T02:26:00,0.8,北,1.9,北北東,26.8,87.1,0,0,0,0,0,0,999.2,1012.5
148,2020-08-17T02:27:00,0.7,北北西,1.9,北北東,26.7,86.4,0,0,0,0,0,0,999.2,1012.5
149,2020-08-17T02:28:00,0.7,北北西,1.9,北北東,26.6,86.3,0,0,0,0,0,0,999.2,1012.5
150,2020-08-17T02:29:00,0.8,北北西,1.9,北北東,26.4,86,0,0,0,0,0,0,999.3,1012.6
151,2020-08-17T02:30:00,0.8,北北西,1.9,北北東,26.4,86.8,0,0,0,0,0,0,999.3,1012.6
152,2020-08-17T02:31:00,0.9,北北西,1.9,北北東,26.4,87.2,0,0,0,0,0,0,999.3,1012.6
153,2020-08-17T02:32:00,0.9,北北西,1.9,北北東,26.5,87.6,0,0,0,0,0,0,999.3,1012.6
154,2020-08-17T02:33:00,0.8,北北西,1.9,北北東,26.4,87.3,0,0,0,0,0,0,999.3,1012.6
155,2020-08-17T02:34:00,0.8,北北西,1.9,北北東,26.4,87.4,0,0,0,0,0,0,999.3,1012.6
156,2020-08-17T02:35:00,0.8,北北西,1.8,北西,26.4,87.9,0,0,0,0,0,0,999.3,1012.6
157,2020-08-17T02:36:00,0.9,北北西,1.8,北西,26.5,88.4,0,0,0,0,0,0,999.2,1012.5
158,2020-08-17T02:37:00,1,北北西,1.8,北西,26.6,88.5,0,0,0,0,0,0,999.2,1012.5
159,2020-08-17T02:38:00,1,北,1.8,北西,26.4,87.9,0,0,0,0,0,0,999.2,1012.5
160,2020-08-17T02:39:00,1,北,1.8,北北東,26.3,87.7,0,0,0,0,0,0,999.2,1012.5
161,2020-08-17T02:40:00,1,北,1.8,北北東,26.5,88.2,0,0,0,0,0,0,999.2,1012.5
162,2020-08-17T02:41:00,1,北北東,1.8,北北東,26.7,88.1,0,0,0,0,0,0,999.2,1012.5
163,2020-08-17T02:42:00,1.1,北北東,1.9,北,26.8,87.4,0,0,0,0,0,0,999.2,1012.5
164,2020-08-17T02:43:00,1.2,北北東,2,北,26.8,86.9,0,0,0,0,0,0,999.3,1012.6
165,2020-08-17T02:44:00,1.2,北北東,2,北,26.9,86.4,0,0,0,0,0,0,999.3,1012.6
166,2020-08-17T02:45:00,1.3,北北東,2,北,26.9,85.9,0,0,0,0,0,0,999.3,1012.6
167,2020-08-17T02:46:00,1.3,北東,2,北,26.7,85.4,0,0,0,0,0,0,999.3,1012.6
168,2020-08-17T02:47:00,1.3,北東,2,北,26.7,85.9,0,0,0,0,0,0,999.3,1012.6
169,2020-08-17T02:48:00,1.4,北東,2,北,26.6,86,0,0,0,0,0,0,999.3,1012.6
170,2020-08-17T02:49:00,1.3,北東,2,北,26.6,86.4,0,0,0,0,0,0,999.3,1012.6
171,2020-08-17T02:50:00,1.2,北東,2,北,26.6,86.3,0,0,0,0,0,0,999.3,1012.6
172,2020-08-17T02:51:00,1.1,北東,2,北,26.7,86.6,0,0,0,0,0,0,999.3,1012.6
173,2020-08-17T02:52:00,1.1,北東,2,北,26.7,86,0,0,0,0,0,0,999.3,1012.6
174,2020-08-17T02:53:00,0.9,北東,2,北東,26.5,85.8,0,0,0,0,0,0,999.3,1012.6
175,2020-08-17T02:54:00,0.8,北東,2,北東,26.4,86.2,0,0,0,0,0,0,999.3,1012.6
176,2020-08-17T02:55:00,0.7,北東,2,北東,26.4,86.6,0,0,0,0,0,0,999.3,1012.6
177,2020-08-17T02:56:00,0.7,北北東,2,北東,26.4,87.1,0,0,0,0,0,0,999.3,1012.6
178,2020-08-17T02:57:00,0.7,北北東,2.1,北北東,26.6,87.1,0,0,0,0,0,0,999.3,1012.6
179,2020-08-17T02:58:00,0.8,北北東,2.3,北北東,26.6,86.8,0,0,0,0,0,0,999.4,1012.7
180,2020-08-17T02:59:00,0.9,北北東,2.3,北北東,26.8,86.9,0,0,0,0,0,0,999.4,1012.7
181,2020-08-17T03:00:00,1,北北東,2.6,北北東,26.8,86.2,0,0,0,0,0,0,999.4,1012.7
182,2020-08-17T03:01:00,1.1,北北東,2.6,北北東,26.9,85.8,0,0,0,0,0,0,999.4,1012.7
183,2020-08-17T03:02:00,1.2,北北東,2.6,北北東,26.9,85.2,0,0,0,0,0,0,999.4,1012.7
184,2020-08-17T03:03:00,1.3,北北東,2.6,北北東,26.9,85,0,0,0,0,0,0,999.4,1012.7
185,2020-08-17T03:04:00,1.4,北北東,2.6,北北東,26.9,84.8,0,0,0,0,0,0,999.4,1012.7
186,2020-08-17T03:05:00,1.4,北北東,2.6,北北東,26.9,84.7,0,0,0,0,0,0,999.4,1012.7
187,2020-08-17T03:06:00,1.4,北,2.6,北北東,26.7,84.3,0,0,0,0,0,0,999.3,1012.6
188,2020-08-17T03:07:00,1.4,北,2.6,北北東,26.4,84.6,0,0,0,0,0,0,999.3,1012.6
189,2020-08-17T03:08:00,1.3,北,2.6,北北東,26.5,85.6,0,0,0,0,0,0,999.3,1012.6
190,2020-08-17T03:09:00,1.3,北北東,2.6,北北東,26.5,86.2,0,0,0,0,0,0,999.3,1012.6
191,2020-08-17T03:10:00,1.3,北北東,2.1,北北東,26.3,86.1,0,0,0,0,0,0,999.3,1012.6
192,2020-08-17T03:11:00,1.3,北北東,2.1,北北東,26.4,86.5,0,0,0,0,0,0,999.3,1012.6
193,2020-08-17T03:12:00,1.3,北北東,2.1,北北東,26.8,87.4,0,0,0,0,0,0,999.3,1012.6
194,2020-08-17T03:13:00,1.3,北北東,2.1,北北東,26.8,86.3,0,0,0,0,0,0,999.2,1012.5
195,2020-08-17T03:14:00,1.4,北北東,2.1,北北東,26.8,85.4,0,0,0,0,0,0,999.2,1012.5
196,2020-08-17T03:15:00,1.5,北北東,2.1,北北東,26.9,85.4,0,0,0,0,0,0,999.2,1012.5
197,2020-08-17T03:16:00,1.5,北北東,2.1,北北東,27,85.2,0,0,0,0,0,0,999.2,1012.5
198,2020-08-17T03:17:00,1.4,北北東,2.1,北北東,26.9,84.8,0,0,0,0,0,0,999.2,1012.5
199,2020-08-17T03:18:00,1.4,北北東,2.1,北北東,26.8,84.5,0,0,0,0,0,0,999.2,1012.5
200,2020-08-17T03:19:00,1.3,北北東,2.1,北北東,26.5,84.5,0,0,0,0,0,0,999.2,1012.5
201,2020-08-17T03:20:00,1.2,北北東,2.1,北北東,26.6,85.4,0,0,0,0,0,0,999.2,1012.5
202,2020-08-17T03:21:00,1.1,北北東,2.1,北北東,26.4,85.6,0,0,0,0,0,0,999.2,1012.5
203,2020-08-17T03:22:00,1,北,2.1,北北東,26.4,86.1,0,0,0,0,0,0,999.2,1012.5
204,2020-08-17T03:23:00,0.9,北,2.1,北北東,26.4,86.6,0,0,0,0,0,0,999.2,1012.5
205,2020-08-17T03:24:00,0.8,北,1.9,北北東,26.3,86.2,0,0,0,0,0,0,999.2,1012.5
206,2020-08-17T03:25:00,0.7,北,1.7,北北東,26.2,86.6,0,0,0,0,0,0,999.2,1012.5
207,2020-08-17T03:26:00,0.7,北,1.3,北北西,26.3,87.1,0,0,0,0,0,0,999.2,1012.5
208,2020-08-17T03:27:00,0.7,北北西,1.3,北北西,26.2,87.2,0,0,0,0,0,0,999.2,1012.5
209,2020-08-17T03:28:00,0.7,北北西,1.4,北西,26.1,87.2,0,0,0,0,0,0,999.2,1012.5
210,2020-08-17T03:29:00,0.7,北北西,1.5,北西,26.1,87.4,0,0,0,0,0,0,999.1,1012.4
211,2020-08-17T03:30:00,0.8,北北西,1.6,北西,26.2,88,0,0,0,0,0,0,999.2,1012.5
212,2020-08-17T03:31:00,0.9,北北西,1.6,北西,26.2,87.7,0,0,0,0,0,0,999.2,1012.5
213,2020-08-17T03:32:00,0.9,北西,1.6,北西,26.2,87.6,0,0,0,0,0,0,999.2,1012.5
214,2020-08-17T03:33:00,0.9,北西,1.6,北西,26.2,87.7,0,0,0,0,0,0,999.1,1012.4
215,2020-08-17T03:34:00,0.9,北西,1.6,北西,26.4,88.3,0,0,0,0,0,0,999.1,1012.4
216,2020-08-17T03:35:00,0.9,北西,1.6,北西,26.4,87.9,0,0,0,0,0,0,999.1,1012.4
217,2020-08-17T03:36:00,0.9,北西,1.6,北西,26.5,87.6,0,0,0,0,0,0,999.1,1012.4
218,2020-08-17T03:37:00,0.9,北西,1.6,北西,26.5,87.1,0,0,0,0,0,0,999.1,1012.4
219,2020-08-17T03:38:00,1,北西,1.6,北西,26.5,86.8,0,0,0,0,0,0,999.1,1012.4
220,2020-08-17T03:39:00,1,北西,1.6,北西,26.6,86.7,0,0,0,0,0,0,999.1,1012.4
221,2020-08-17T03:40:00,1,北西,1.6,西北西,26.6,86.3,0,0,0,0,0,0,999.1,1012.4
222,2020-08-17T03:41:00,1,北西,1.6,西北西,26.3,85.7,0,0,0,0,0,0,999.1,1012.4
223,2020-08-17T03:42:00,1,西北西,1.6,西北西,26.3,86.4,0,0,0,0,0,0,999.1,1012.4
224,2020-08-17T03:43:00,1,西北西,1.6,西北西,26.2,86.5,0,0,0,0,0,0,999.2,1012.5
225,2020-08-17T03:44:00,1,西北西,1.6,西北西,26.2,87,0,0,0,0,0,0,999.2,1012.5
226,2020-08-17T03:45:00,1.1,西北西,1.6,西北西,26.2,87.4,0,0,0,0,0,0,999.2,1012.5
227,2020-08-17T03:46:00,1.1,西北西,1.6,西北西,26.2,87.6,0,0,0,0,0,0,999.2,1012.5
228,2020-08-17T03:47:00,1,西北西,1.6,西北西,26.3,87.8,0,0,0,0,0,0,999.1,1012.4
229,2020-08-17T03:48:00,1,西北西,1.6,西北西,26.2,87.7,0,0,0,0,0,0,999.1,1012.4
230,2020-08-17T03:49:00,0.9,西北西,1.6,西北西,26,87.5,0,0,0,0,0,0,999.1,1012.4
231,2020-08-17T03:50:00,0.8,西北西,1.5,西,26,88,0,0,0,0,0,0,999.1,1012.4
232,2020-08-17T03:51:00,0.8,西北西,1.3,西北西,25.8,88.2,0,0,0,0,0,0,999.1,1012.4
233,2020-08-17T03:52:00,0.7,西北西,1.3,西北西,25.8,88.7,0,0,0,0,0,0,999.1,1012.4
234,2020-08-17T03:53:00,0.7,西,1.3,西北西,25.7,89.2,0,0,0,0,0,0,999.1,1012.4
235,2020-08-17T03:54:00,0.7,西,1.3,西北西,25.8,89.6,0,0,0,0,0,0,999.1,1012.4
236,2020-08-17T03:55:00,0.7,西,1.1,西南西,25.9,89.8,0,0,0,0,0,0,999.2,1012.5
237,2020-08-17T03:56:00,0.6,西,1.1,西南西,25.7,89.5,0,0,0,0,0,0,999.2,1012.5
238,2020-08-17T03:57:00,0.6,西,1.1,西南西,25.8,89.8,0,0,0,0,0,0,999.2,1012.5
239,2020-08-17T03:58:00,0.6,西,1.1,西南西,25.8,90.2,0,0,0,0,0,0,999.2,1012.5
240,2020-08-17T03:59:00,0.6,西,1.1,西南西,25.9,90,0,0,0,0,0,0,999.2,1012.5
241,2020-08-17T04:00:00,0.6,西北西,1.1,西南西,25.8,89.8,0,0,0,0,0,0,999.2,1012.5
242,2020-08-17T04:01:00,0.5,西北西,1,北西,25.8,89.7,0,0,0,0,0,0,999.2,1012.5
243,2020-08-17T04:02:00,0.5,西北西,1,北西,25.8,89.8,0,0,0,0,0,0,999.2,1012.5
244,2020-08-17T04:03:00,0.5,西北西,1,北西,26,90.1,0,0,0,0,0,0,999.2,1012.5
245,2020-08-17T04:04:00,0.5,西北西,1,北西,26,89.6,0,0,0,0,0,0,999.2,1012.5
246,2020-08-17T04:05:00,0.4,西北西,1,北西,26,89.1,0,0,0,0,0,0,999.2,1012.5
247,2020-08-17T04:06:00,0.4,西北西,1,北西,26,89,0,0,0,0,0,0,999.2,1012.5
248,2020-08-17T04:07:00,0.4,西北西,1,西北西,26.1,88.9,0,0,0,0,0,0,999.2,1012.5
249,2020-08-17T04:08:00,0.4,西,1,西北西,25.9,88.2,0,0,0,0,0,0,999.2,1012.5
250,2020-08-17T04:09:00,0.4,西北西,1,西北西,26,88.8,0,0,0,0,0,0,999.2,1012.5
251,2020-08-17T04:10:00,0.3,西北西,1,西北西,25.9,88.7,0,0,0,0,0,0,999.2,1012.5
252,2020-08-17T04:11:00,0.3,西北西,1,西北西,26,89.1,0,0,0,0,0,0,999.2,1012.5
253,2020-08-17T04:12:00,0.3,西北西,1,西北西,26,89,0,0,0,0,0,0,999.2,1012.5
254,2020-08-17T04:13:00,0.3,西北西,1,西北西,25.9,88.9,0,0,0,0,0,0,999.1,1012.4
255,2020-08-17T04:14:00,0.3,北西,1,西北西,26,89.2,0,0,0,0,0,0,999.1,1012.4
256,2020-08-17T04:15:00,0.3,北西,1,西北西,26.1,89.2,0,0,0,0,0,0,999.1,1012.4
257,2020-08-17T04:16:00,0.3,北西,1,西北西,26,88.8,0,0,0,0,0,0,999.2,1012.5
258,2020-08-17T04:17:00,0.3,北西,1,西北西,25.9,88.3,0,0,0,0,0,0,999.2,1012.5
259,2020-08-17T04:18:00,0.3,北西,1,西北西,25.9,88.9,0,0,0,0,0,0,999.2,1012.5
260,2020-08-17T04:19:00,0.3,北西,1,西北西,26.3,89.4,0,0,0,0,0,0,999.2,1012.5
261,2020-08-17T04:20:00,0.3,北西,1,西北西,26.4,88.8,0,0,0,0,0,0,999.2,1012.5
262,2020-08-17T04:21:00,0.4,北西,1,西北西,26.4,87.8,0,0,0,0,0,0,999.2,1012.5
263,2020-08-17T04:22:00,0.4,北西,1.1,北西,26.4,87.5,0,0,0,0,0,0,999.2,1012.5
264,2020-08-17T04:23:00,0.5,北西,1.1,北西,26.1,86.7,0,0,0,0,0,0,999.2,1012.5
265,2020-08-17T04:24:00,0.5,北西,1.3,西北西,26.3,87.2,0,0,0,0,0,0,999.2,1012.5
266,2020-08-17T04:25:00,0.6,北西,1.4,西,26.4,87.5,0,0,0,0,0,0,999.2,1012.5
267,2020-08-17T04:26:00,0.7,北西,1.7,西,26.4,87.2,0,0,0,0,0,0,999.2,1012.5
268,2020-08-17T04:27:00,0.8,北西,1.7,西,26.2,86.8,0,0,0,0,0,0,999.3,1012.6
269,2020-08-17T04:28:00,0.9,西北西,1.7,西,26.1,87,0,0,0,0,0,0,999.3,1012.6
270,2020-08-17T04:29:00,1,西北西,1.7,西,26.1,87.4,0,0,0,0,0,0,999.3,1012.6
271,2020-08-17T04:30:00,1,西北西,1.7,西,25.8,87.6,0,0,0,0,0,0,999.3,1012.6
272,2020-08-17T04:31:00,1.1,西北西,1.7,西,25.8,88.3,0,0,0,0,0,0,999.3,1012.6
273,2020-08-17T04:32:00,1.1,西北西,1.7,西,26.1,89,0,0,0,0,0,0,999.4,1012.7
274,2020-08-17T04:33:00,1.2,西北西,1.7,西,26.4,88.9,0,0,0,0,0,0,999.4,1012.7
275,2020-08-17T04:34:00,1.2,西北西,1.7,西,26.4,88.2,0,0,0,0,0,0,999.4,1012.7
276,2020-08-17T04:35:00,1.1,西北西,1.7,西,26.3,87.4,0,0,0,0,0,0,999.4,1012.7
277,2020-08-17T04:36:00,1.1,西北西,1.6,西,26.3,87.3,0,0,0,0,0,0,999.4,1012.7
278,2020-08-17T04:37:00,1,西北西,1.6,西,26.3,87.6,0,0,0,0,0,0,999.4,1012.7
279,2020-08-17T04:38:00,0.9,西北西,1.4,西北西,26.3,87.4,0,0,0,0,0,0,999.4,1012.7
280,2020-08-17T04:39:00,0.9,北西,2.1,北北東,26.4,87.6,0,0,0,0,0,0,999.4,1012.7
281,2020-08-17T04:40:00,1,北西,2.1,北北東,26.3,87.4,0,0,0,0,0,0,999.4,1012.7
282,2020-08-17T04:41:00,1,北西,2.1,北北東,26.5,87.6,0,0,0,0,0,0,999.4,1012.7
283,2020-08-17T04:42:00,1,北北西,2.1,北北東,26.5,86.8,0,0,0,0,0,0,999.4,1012.7
284,2020-08-17T04:43:00,1,北北西,2.1,北北東,26.6,86.6,0,0,0,0,0,0,999.5,1012.8
285,2020-08-17T04:44:00,1,北,2.1,北北東,26.7,86.4,0,0,0,0,0,0,999.4,1012.7
286,2020-08-17T04:45:00,1.1,北,2.1,北北東,26.6,85.8,0,0,0,0,0,0,999.5,1012.8
287,2020-08-17T04:46:00,1,北,2.1,北北東,26.5,85.6,0,0,0,0,0,0,999.5,1012.8
288,2020-08-17T04:47:00,1,北北東,2.1,北北東,26.6,85.7,0,0,0,0,0,0,999.5,1012.8
289,2020-08-17T04:48:00,1,北北東,2.1,北北東,26.6,85.5,0,0,0,0,0,0,999.5,1012.8
290,2020-08-17T04:49:00,1,北,1.7,北北東,26.3,85.2,0,0,0,0,0,0,999.5,1012.8
291,2020-08-17T04:50:00,0.9,北,1.7,北北東,26.2,86,0,0,0,0,0,0,999.5,1012.8
292,2020-08-17T04:51:00,0.8,北,1.7,北北東,26.3,86.6,0,0,0,0,0,0,999.5,1012.8
293,2020-08-17T04:52:00,0.7,北,1.7,北北東,26.4,87,0,0,0,0,0,0,999.5,1012.8
294,2020-08-17T04:53:00,0.7,北北西,1.7,北北東,26.2,86.7,0,0,0,0,0,0,999.5,1012.8
295,2020-08-17T04:54:00,0.7,北北西,1.7,北西,26.3,86.9,0,0,0,0,0,0,999.6,1012.9
296,2020-08-17T04:55:00,0.6,北北西,2.1,北,26.2,86.8,0,0,0,0,0,0,999.6,1012.9
297,2020-08-17T04:56:00,0.7,北北西,2.4,北北東,26.2,87.1,0,0,0,0,0,0,999.6,1012.9
298,2020-08-17T04:57:00,0.8,北北西,2.4,北北東,26.3,87.3,0,0,0,0,0,0,999.6,1012.9
299,2020-08-17T04:58:00,1,北北西,2.4,北北東,26.5,87.4,0,0,0,0,0,0,999.6,1012.9
300,2020-08-17T04:59:00,1.1,北北西,2.7,北北東,26.6,86.8,0,0,0,0,0,0,999.6,1012.9
301,2020-08-17T05:00:00,1.1,北,2.7,北北東,26.6,86.1,0,0,0,0,0,0,999.6,1012.9
302,2020-08-17T05:01:00,1.2,北,2.7,北北東,26.5,85.9,0,0,0,0,0,0,999.6,1012.9
303,2020-08-17T05:02:00,1.3,北,2.7,北北東,26.6,86.3,0,0,0,0,0,0,999.6,1012.9
304,2020-08-17T05:03:00,1.3,北,2.7,北北東,26.6,86,0,0,0,0,0,0,999.6,1012.9
305,2020-08-17T05:04:00,1.4,北北東,2.7,北北東,26.8,86.1,0,0,0,0,0,0,999.6,1012.9
306,2020-08-17T05:05:00,1.4,北北東,2.7,北北東,26.7,85.4,0,0,0,0,0,0,999.7,1013
307,2020-08-17T05:06:00,1.4,北北東,2.7,北北東,26.7,85.5,0,0,0,0,0,0,999.7,1013
308,2020-08-17T05:07:00,1.4,北北東,2.7,北北東,26.8,85.5,0,0,0,0,0,0,999.7,1013
309,2020-08-17T05:08:00,1.4,北北東,2.7,北北東,26.6,84.9,0,0,0,0,0,0,999.7,1013
310,2020-08-17T05:09:00,1.5,北北東,2.7,北東,26.6,85.7,0,0,0,0,0,0,999.7,1013
311,2020-08-17T05:10:00,1.5,北北東,2.7,北東,26.6,86,0,0,0,0,0,0,999.8,1013.1
312,2020-08-17T05:11:00,1.6,北北東,2.7,北東,26.6,86.2,0,0,0,0,0,0,999.8,1013.1
313,2020-08-17T05:12:00,1.6,北北東,2.7,北東,26.5,86.4,0,0,0,0,0,0,999.8,1013.1
314,2020-08-17T05:13:00,1.5,北北東,2.7,北東,26.5,86.8,0,0,0,0,0,0,999.8,1013.1
315,2020-08-17T05:14:00,1.5,北北東,2.6,北東,26.5,87,0,0,0,0,0,0,999.8,1013.1
316,2020-08-17T05:15:00,1.4,北北東,2.6,北東,26.1,86.7,0,0,0,0,0,0,999.8,1013.1
317,2020-08-17T05:16:00,1.4,北北東,2.6,北東,26.4,88.2,0,0,0,0,0,0,999.8,1013.1
318,2020-08-17T05:17:00,1.4,北北東,2.6,北東,26.5,88.2,0,0,0,0,0,0,999.8,1013.1
319,2020-08-17T05:18:00,1.4,北北東,2.6,北東,26.3,87.8,0,0,0,0,0,0,999.8,1013.1
320,2020-08-17T05:19:00,1.4,北北東,2.4,北東,26.5,88.5,0,0,0,0,0,0,999.8,1013.1
321,2020-08-17T05:20:00,1.4,北北東,2.4,北東,26.7,88.5,0,0,0,0,0,0,999.9,1013.2
322,2020-08-17T05:21:00,1.4,北北東,2.4,北東,26.7,87.5,0,0,0,0,0,0,999.9,1013.2
323,2020-08-17T05:22:00,1.4,北北東,2.4,北東,26.7,86.9,0,0,0,0,0,0,999.9,1013.2
324,2020-08-17T05:23:00,1.5,北北東,2.6,北東,26.8,86.8,0,0,0,0,0,0,999.9,1013.2
325,2020-08-17T05:24:00,1.6,北北東,2.8,北東,26.8,86.4,0,0,0,0,0,0,999.9,1013.2
326,2020-08-17T05:25:00,1.8,北東,2.8,北東,26.5,85.8,0,0,0,0,0,0,1000,1013.3
327,2020-08-17T05:26:00,1.9,北東,3,北東,26.7,86.7,0,0,0,0,0,0,1000,1013.3
328,2020-08-17T05:27:00,1.9,北東,3,北東,26.7,86.6,0,0,0,0,0,0,1000,1013.3